Weather History for Crestview, FL

Change the Weather History Date:

Thursday, December 19, 2013

  Actual Average Record
Temperature  
Mean Temperature 49 °F -  
Max Temperature 66 °F - - ()
Min Temperature 32 °F - - ()
Degree Days  
Heating Degree Days 16    
Moisture  
Dew Point 39 °F    
Average Humidity 63    
Maximum Humidity 90    
Minimum Humidity 31    
Precipitation  
Precipitation 0.00 in - - ()
Sea Level Pressure  
Sea Level Pressure 30.23 in    
Wind  
Wind Speed 4 mph (SE)    
Max Wind Speed 9 mph    
Max Gust Speed -    
Visibility 10 miles    
Events      
T = Trace of Precipitation, MM = Missing Value Source: NWS Daily Summary

Daily Weather History Graph

Daily Weather History Graph

Search for Another Location

Airport:

Trip Planner

Search our weather history database for the weather conditions in past years. The results will help you decide how hot, cold, wet, or windy it might be!

Date:

Astronomy

Dec. 19, 2013 Rise Set
Actual Time 6:38 AM CST 4:48 PM CST
Civil Twilight 6:11 AM CST 5:14 PM CST
Nautical Twilight 5:41 AM CST 5:45 PM CST
Astronomical Twilight 5:12 AM CST 6:14 PM CST
Moon 7:05 PM CST (12/19) 8:04 AM CST (12/19)
Length of Visible Light 11h 03m
Length of Day
10h 09m
Waning Gibbous, 95% of the Moon is Illuminated
Dec 19
Waning Gibbous
Dec 25
Last Quarter
Jan 1
New
Jan 7
First Quarter
Jan 15
Full

Hourly Weather History & Observations

Time (CST) Temp. Windchill Dew Point Humidity Pressure Visibility Wind Dir Wind Speed Gust Speed Precip Events Conditions
12:58 AM 33.1 °F - 27.0 °F 78% 30.27 in 10.0 mi East 2.3 mph - N/A   Clear
1:58 AM 32.2 °F 27.7 °F 26.4 °F 79% 30.26 in 10.0 mi East 4.6 mph - N/A   Clear
2:58 AM 34.0 °F - 26.2 °F 73% 30.27 in 10.0 mi Calm Calm - N/A   Clear
3:58 AM 34.7 °F 31.8 °F 25.9 °F 70% 30.26 in 10.0 mi ESE 3.5 mph - N/A   Clear
4:58 AM 41.2 °F 38.2 °F 25.3 °F 53% 30.27 in 10.0 mi East 4.6 mph - N/A   Clear
5:58 AM 39.6 °F - 25.5 °F 57% 30.27 in 10.0 mi East 2.3 mph - N/A   Clear
6:58 AM 32.7 °F - 25.0 °F 73% 30.27 in 10.0 mi Calm Calm - N/A   Clear
7:58 AM 46.4 °F 42.9 °F 24.8 °F 43% 30.29 in 10.0 mi East 6.9 mph - N/A   Clear
8:55 AM 54.1 °F - 24.3 °F 31% 30.30 in 10.0 mi SE 6.9 mph - N/A   Partly Cloudy
9:55 AM 59.7 °F - 33.1 °F 37% 30.31 in 10.0 mi SE 8.1 mph - N/A   Partly Cloudy
10:55 AM 62.6 °F - 38.7 °F 41% 30.28 in 10.0 mi ESE 6.9 mph - N/A   Partly Cloudy
11:55 AM 65.1 °F - 43.3 °F 45% 30.24 in 10.0 mi SSE 6.9 mph - N/A   Partly Cloudy
12:55 PM 66.0 °F - 46.6 °F 49% 30.22 in 10.0 mi SSW 9.2 mph - N/A   Scattered Clouds
1:55 PM 66.0 °F - 48.2 °F 53% 30.20 in 10.0 mi South 6.9 mph - N/A   Mostly Cloudy
2:55 PM 64.4 °F - 48.4 °F 56% 30.20 in 10.0 mi SSE 6.9 mph - N/A   Mostly Cloudy
3:55 PM 62.8 °F - 48.6 °F 60% 30.19 in 10.0 mi SSE 5.8 mph - N/A   Mostly Cloudy
3:58 PM 62.8 °F - 48.6 °F 60% 30.20 in 10.0 mi SE 5.8 mph - N/A   Clear
4:55 PM 59.7 °F - 48.4 °F 66% 30.18 in 10.0 mi SE 3.5 mph - N/A   Mostly Cloudy
5:55 PM 54.9 °F - 47.1 °F 75% 30.19 in 10.0 mi SSE 2.3 mph - N/A   Mostly Cloudy
6:55 PM 49.3 °F - 45.7 °F 87% 30.20 in 10.0 mi Calm Calm - N/A   Mostly Cloudy
7:55 PM 47.1 °F - 44.4 °F 90% 30.21 in 10.0 mi Calm Calm - N/A   Mostly Cloudy
8:55 PM 56.7 °F - 47.5 °F 71% 30.19 in 10.0 mi SE 4.6 mph - N/A   Mostly Cloudy
9:46 PM 57.2 °F - 48.2 °F 72% 30.18 in 10.0 mi SE 8.1 mph - N/A   Scattered Clouds
9:55 PM 56.3 °F - 47.8 °F 73% 30.19 in 10.0 mi SE 6.9 mph - N/A   Partly Cloudy
10:55 PM 54.1 °F - 46.2 °F 75% 30.18 in 10.0 mi SE 4.6 mph - N/A   Partly Cloudy
11:55 PM 52.9 °F - 42.8 °F 69% 30.15 in 10.0 mi SE 3.5 mph - N/A   Partly Cloudy